Location: Fayetteville
(35.0530°N, 78.8790°W)
Time: 15:16:36
(UTC-04:00)

Hubble Space Telescope - Pass Details

Date: 20 June 2019
Orbit: 536 x 540 km, 28.5° (Epoch: 19 July)

Event Time Altitude Azimuth Distance (km) Brightness Sun altitude
Exits shadow 04:12:59 22° 162° (SSE) 1,182 2.2 -18.2°
Drops below altitude 10° 04:15:12 10° 133° (SE) 1,775 3.4 -17.9°
Sets 04:17:43 0° 121° (ESE) 2,664 4.5 -17.5°
